Regional Weather Roundup
Issued by NWS Newport/Morehead, NC

Current Version | Previous Version | Text Only | Print | Product List | Glossary On
Versions: 1 2 3 4 5 6 7 8 9 10 11 12 13 14 15 16 17 18 19 20 21 22 23 24 25 26 27 28 29 30 31 32 33 34 35 36 37 38 39 40 41 42 43 44 45 46 47 48 49 50
000
ASUS42 KMHX 251925
RWRMHX
WEATHER ROUNDUP FOR EASTERN NORTH CAROLINA
NATIONAL WEATHER SERVICE NEWPORT/MOREHEAD CITY NC
300 PM EDT WED MAY 25 2016

NOTE: "FAIR" INDICATES FEW OR NO CLOUDS BELOW 12,000 FEET
WITH NO SIGNIFICANT WEATHER AND/OR OBSTRUCTIONS TO VISIBILITY

NCZ015>017-031-032-045>047-102-103-252000-
NORTH COAST

CITY           SKY/WX    TMP DP  RH WIND       PRES   REMARKS
EDENTON        SUNNY     87  56  34 SW8       30.17F
ELIZABETH CITY MOSUNNY   85  59  41 S12G18    30.17S
KITTY HAWK     PTCLDY    89  58  34 SW5       30.17S
MANTEO         MOSUNNY   83  61  48 SW8       30.18F

$$

NCZ045>047-081-094-103-104-252000-
CENTRAL COAST

CITY           SKY/WX    TMP DP  RH WIND       PRES   REMARKS
FRISCO         SUNNY     77  67  71 SW7       30.22S

$$

NCZ095-097-098-100-101-252000-
SOUTHERN COAST

CITY           SKY/WX    TMP DP  RH WIND       PRES   REMARKS
BEAUFORT       SUNNY     79  68  69 SW12      30.21F
CEDAR ISLAND   NOT AVBL
JACKSONVILLE   PTSUNNY   83  58  42 S14       30.19F
PINEY ISLAND   MOCLDY   N/A N/A N/A VRB7      30.20
WILMINGTON     MOSUNNY   85  57  38 S10       30.19F


$$

NCZ011>013-027>030-043-044-078>080-089-090>093-098-252000-
COASTAL PLAIN

CITY           SKY/WX    TMP DP  RH WIND       PRES   REMARKS
AHOSKIE        SUNNY     85  55  35 NW3       30.16F
CLINTON        SUNNY     86  59  39 S5        30.19S
ELIZABETHTOWN  PTSUNNY   86  54  33 CALM      30.19F
GOLDSBORO      MOSUNNY   87  55  32 S9        30.17F
GREENVILLE     MOSUNNY   86  55  35 CALM      30.19F
HAVELOCK       MOSUNNY   84  58  40 S12       30.20F
KENANSVILLE    CLOUDY    85  51  30 W6        30.19F
KINSTON        MOSUNNY   86  50  28 S5        30.19F
NEW BERN       SUNNY     86  55  34 CALM      30.20F
RICHLANDS      MOSUNNY   85  55  35 SE6       30.19F
ROCKY MOUNT    MOSUNNY   86  56  35 VRB5      30.17F
WASHINGTON     MOSUNNY   85  56  37 SW5       30.18F
WHITEVILLE     PTSUNNY   85  57  38 CALM      30.19S

$$

AMZ130-135-150-152-154-156-158-170-250-252-270-ANZ085-086-088-633-658-670-252000-
MARINE OBSERVATIONS

STATION/POSITION TIME  TEMP    WIND        PRES    WAVE   SWELL
                       AIR SEA DIR/SP/G            HT/PER HT/PER
                 (UTC) (F)     (DEG/KT/KT) (MB)    (FT/S) (FT/S)
CHESAPEAKE LIGHT 1900   74     120/  5/  5 1022.1
64 E VA BEACH    1850   64 61  200/  4/  6 1021.8    2/ 8   2/ 8
DUCK             1900   81 60  230/  9/ 11 1021.2
2 E DUCK         1811      63                N/A     2/ 9
OREGON INLET     1900   75 71  190/ 12/ 14 1022.1
13E OREGON INLT  1900      69                N/A     2/ 9   2/ 9
HATTERAS CG      1900   73 69  200/  7/ 11 1022.5
DIAMOND BUOY     1850   72 71  230/  8/ 10 1023.2    2/ 8   2/ 8
CAPE LOOKOUT     1900   75     200/ 11/ 14 1022.9
BEAUFORT LAB     1900   75 69  200/ 11/ 13 1022.3
30 SE NEW RVR IN 1825      74                N/A     2/ 9
27 SE WRIGHTSVLE 1908   75 74  220/  8/ 10 1022.7
5 SE WRIGHTSVLE  1908   74 73  200/ 12/ 16 1023.7
225 S CAPE HAT   1850   75 79   60/ 10/ 12 1023.9    3/ 7   3/ 7
41 SE CHARLESTON 1850   78 80  250/  2/  4 1023.8    2/ 8   2/ 8

$$




USA.gov is the U.S. government's official web portal to all federal, state and local government web resources and services.